weather.gov     
National Weather Service

Terminal Aerodrome Forecast
NWS Homepage
This page is being discontinued on March 12, 2014.
The same data is available at this site. Please update your bookmarks.
Thank you, and we apologize for the inconvenience.
Please send an email to SR-SRH.Webmaster@noaa.gov with any concerns.


Current Version
Previous Version:    01  02  03  04  05  06  07  08  09  10  11  12  13  14  15  16  17  18  19  20  21  22  23  24  25  26  27  
[Printable]
017
FTUS44 KOUN 011139
TAFOUN
TAF
KOUN 011139Z 0112/0212 30014KT P6SM BKN015 OVC030
      TEMPO 0112/0116 SCT015 OVC030
     FM011600 33022G35KT P6SM SCT025 SCT250
      TEMPO 0116/0119 BKN025
     FM020200 34016G24KT P6SM SKC
     FM021000 35012KT P6SM SKC=


017
FTUS44 KOUN 011139
TAFOUN
TAF
KOUN 011139Z 0112/0212 30014KT P6SM BKN015 OVC030
      TEMPO 0112/0116 SCT015 OVC030
     FM011600 33022G35KT P6SM SCT025 SCT250
      TEMPO 0116/0119 BKN025
     FM020200 34016G24KT P6SM SKC
     FM021000 35012KT P6SM SKC=




U.S. Dept. of Commerce
NOAA National Weather Service
1325 East West Highway
Silver Spring, MD 20910
E-mail: w-nws.webmaster@noaa.gov
Page last modified: May 16, 2007
NATIONAL WEATHER SERVICE: for Safety, for Work, for Fun - FOR LIFE